TimeCDT,TemperatureF,Dew PointF,Humidity,Sea Level PressureIn,VisibilityMPH,Wind Direction,Wind SpeedMPH,Gust SpeedMPH,PrecipitationIn,Events,Conditions,WindDirDegrees,DateUTC
12:15 AM,77.0,55.4,47,29.80,10.0,South,20.7,28.8,N/A,,Clear,180,2013-09-27 05:15:00
12:35 AM,75.2,55.4,50,29.81,10.0,South,20.7,26.5,N/A,,Clear,180,2013-09-27 05:35:00
12:55 AM,75.2,53.6,47,29.81,10.0,South,23.0,-,N/A,,Clear,180,2013-09-27 05:55:00
1:15 AM,75.2,53.6,47,29.81,10.0,South,23.0,31.1,N/A,,Clear,180,2013-09-27 06:15:00
1:35 AM,75.2,53.6,47,29.81,10.0,South,23.0,-,N/A,,Clear,180,2013-09-27 06:35:00
1:55 AM,73.4,53.6,50,29.82,10.0,South,19.6,-,N/A,,Clear,180,2013-09-27 06:55:00
2:15 AM,73.4,53.6,50,29.82,10.0,South,19.6,25.3,N/A,,Clear,190,2013-09-27 07:15:00
2:35 AM,73.4,51.8,47,29.82,10.0,South,20.7,-,N/A,,Clear,180,2013-09-27 07:35:00
2:55 AM,73.4,51.8,47,29.82,10.0,South,19.6,-,N/A,,Clear,180,2013-09-27 07:55:00
3:15 AM,73.4,51.8,47,29.82,10.0,South,21.9,25.3,N/A,,Clear,190,2013-09-27 08:15:00
3:35 AM,73.4,51.8,47,29.82,10.0,South,19.6,-,N/A,,Clear,190,2013-09-27 08:35:00
3:55 AM,73.4,50.0,44,29.82,10.0,South,17.3,-,N/A,,Clear,180,2013-09-27 08:55:00
4:15 AM,71.6,50.0,46,29.82,10.0,South,15.0,-,N/A,,Clear,170,2013-09-27 09:15:00
4:35 AM,71.6,50.0,46,29.83,10.0,South,11.5,-,N/A,,Clear,170,2013-09-27 09:35:00
4:55 AM,69.8,50.0,49,29.84,10.0,SSE,8.1,-,N/A,,Clear,150,2013-09-27 09:55:00
5:15 AM,66.2,50.0,56,29.84,10.0,SE,9.2,-,N/A,,Clear,140,2013-09-27 10:15:00
5:35 AM,68.0,50.0,52,29.85,10.0,SE,10.4,-,N/A,,Clear,140,2013-09-27 10:35:00
5:55 AM,66.2,50.0,56,29.85,10.0,SSE,11.5,-,N/A,,Clear,150,2013-09-27 10:55:00
6:15 AM,66.2,51.8,60,29.86,10.0,SE,9.2,-,N/A,,Clear,140,2013-09-27 11:15:00
6:35 AM,64.4,51.8,64,29.86,10.0,SE,10.4,-,N/A,,Clear,140,2013-09-27 11:35:00
6:55 AM,64.4,51.8,64,29.86,10.0,SSE,12.7,-,N/A,,Clear,150,2013-09-27 11:55:00
7:15 AM,64.4,51.8,64,29.86,10.0,SE,10.4,-,N/A,,Clear,130,2013-09-27 12:15:00
7:35 AM,66.2,51.8,60,29.87,10.0,SSE,9.2,-,N/A,,Clear,150,2013-09-27 12:35:00
7:55 AM,64.4,53.6,68,29.87,10.0,SSE,9.2,-,N/A,,Clear,150,2013-09-27 12:55:00
8:15 AM,66.2,53.6,64,29.88,10.0,SSE,9.2,-,N/A,,Clear,150,2013-09-27 13:15:00
8:35 AM,68.0,53.6,60,29.88,10.0,SSE,10.4,-,N/A,,Clear,160,2013-09-27 13:35:00
8:55 AM,69.8,53.6,56,29.88,10.0,SSE,12.7,-,N/A,,Clear,160,2013-09-27 13:55:00
9:15 AM,71.6,55.4,57,29.88,10.0,South,12.7,-,N/A,,Clear,180,2013-09-27 14:15:00
9:35 AM,73.4,57.2,57,29.89,10.0,SSW,13.8,20.7,N/A,,Clear,200,2013-09-27 14:35:00
9:55 AM,77.0,62.6,61,29.88,10.0,South,15.0,20.7,N/A,,Clear,190,2013-09-27 14:55:00
10:15 AM,80.6,64.4,58,29.88,10.0,SSW,19.6,-,N/A,,Clear,210,2013-09-27 15:15:00
10:35 AM,80.6,64.4,58,29.88,10.0,SSW,26.5,29.9,N/A,,Clear,200,2013-09-27 15:35:00
10:55 AM,82.4,64.4,54,29.88,10.0,SSW,24.2,29.9,N/A,,Clear,210,2013-09-27 15:55:00
11:15 AM,82.4,64.4,54,29.88,10.0,South,25.3,33.4,N/A,,Clear,190,2013-09-27 16:15:00
11:35 AM,84.2,64.4,51,29.87,10.0,South,26.5,32.2,N/A,,Partly Cloudy,190,2013-09-27 16:35:00
11:55 AM,84.2,64.4,51,29.87,10.0,South,25.3,33.4,N/A,,Scattered Clouds,190,2013-09-27 16:55:00
12:15 PM,86.0,64.4,48,29.86,10.0,South,23.0,31.1,N/A,,Partly Cloudy,190,2013-09-27 17:15:00
12:35 PM,86.0,64.4,48,29.85,10.0,South,26.5,34.5,N/A,,Clear,190,2013-09-27 17:35:00
12:55 PM,86.0,62.6,45,29.84,10.0,South,23.0,34.5,N/A,,Partly Cloudy,180,2013-09-27 17:55:00
1:15 PM,86.0,62.6,45,29.83,10.0,South,24.2,33.4,N/A,,Scattered Clouds,190,2013-09-27 18:15:00
1:35 PM,86.0,62.6,45,29.82,10.0,South,25.3,34.5,N/A,,Mostly Cloudy,180,2013-09-27 18:35:00
1:55 PM,87.8,62.6,43,29.81,10.0,South,28.8,35.7,N/A,,Mostly Cloudy,170,2013-09-27 18:55:00
2:15 PM,89.6,62.6,40,29.81,10.0,South,23.0,34.5,N/A,,Partly Cloudy,180,2013-09-27 19:15:00
2:35 PM,89.6,62.6,40,29.80,10.0,South,25.3,33.4,N/A,,Scattered Clouds,180,2013-09-27 19:35:00
2:55 PM,89.6,60.8,38,29.79,10.0,South,21.9,29.9,N/A,,Scattered Clouds,180,2013-09-27 19:55:00
3:15 PM,87.8,60.8,40,29.78,10.0,South,25.3,33.4,N/A,,Partly Cloudy,170,2013-09-27 20:15:00
3:35 PM,89.6,60.8,38,29.78,10.0,SSW,23.0,33.4,N/A,,Scattered Clouds,200,2013-09-27 20:35:00
3:55 PM,89.6,60.8,38,29.78,10.0,South,26.5,34.5,N/A,,Mostly Cloudy,180,2013-09-27 20:55:00
4:15 PM,89.6,60.8,38,29.77,10.0,South,26.5,33.4,N/A,,Scattered Clouds,170,2013-09-27 21:15:00
4:35 PM,87.8,60.8,40,29.77,10.0,South,20.7,31.1,N/A,,Scattered Clouds,170,2013-09-27 21:35:00
4:55 PM,87.8,60.8,40,29.77,10.0,South,25.3,31.1,N/A,,Mostly Cloudy,180,2013-09-27 21:55:00
5:15 PM,87.8,62.6,43,29.77,10.0,South,23.0,36.8,N/A,,Scattered Clouds,170,2013-09-27 22:15:00
5:35 PM,89.6,62.6,40,29.77,10.0,SSE,24.2,32.2,N/A,,Partly Cloudy,160,2013-09-27 22:35:00
5:55 PM,87.8,62.6,43,29.76,10.0,SSE,28.8,36.8,N/A,,Clear,160,2013-09-27 22:55:00
6:15 PM,86.0,62.6,45,29.75,10.0,South,26.5,33.4,N/A,,Clear,170,2013-09-27 23:15:00
6:35 PM,86.0,62.6,45,29.75,10.0,SSE,25.3,35.7,N/A,,Clear,160,2013-09-27 23:35:00
6:55 PM,84.2,62.6,48,29.75,10.0,SSE,23.0,29.9,N/A,,Clear,160,2013-09-27 23:55:00
7:15 PM,84.2,62.6,48,29.75,10.0,SSE,19.6,25.3,N/A,,Clear,160,2013-09-28 00:15:00
7:35 PM,82.4,62.6,51,29.74,10.0,SSE,20.7,26.5,N/A,,Clear,160,2013-09-28 00:35:00
7:55 PM,82.4,62.6,51,29.74,10.0,SSE,18.4,24.2,N/A,,Clear,160,2013-09-28 00:55:00
8:15 PM,80.6,62.6,54,29.75,10.0,SSE,18.4,24.2,N/A,,Clear,160,2013-09-28 01:15:00
8:35 PM,80.6,62.6,54,29.77,10.0,SSE,18.4,-,N/A,,Partly Cloudy,160,2013-09-28 01:35:00
8:55 PM,80.6,62.6,54,29.78,10.0,SSE,16.1,-,N/A,,Partly Cloudy,160,2013-09-28 01:55:00
9:15 PM,80.6,62.6,54,29.79,10.0,South,19.6,25.3,N/A,,Partly Cloudy,170,2013-09-28 02:15:00
9:35 PM,80.6,62.6,54,29.79,10.0,SSE,19.6,25.3,N/A,,Clear,160,2013-09-28 02:35:00
9:55 PM,80.6,62.6,54,29.78,10.0,SSE,19.6,25.3,N/A,,Partly Cloudy,160,2013-09-28 02:55:00
10:15 PM,78.8,62.6,57,29.78,10.0,SSE,20.7,-,N/A,,Scattered Clouds,160,2013-09-28 03:15:00
10:35 PM,78.8,62.6,57,29.77,10.0,SSE,23.0,-,N/A,,Scattered Clouds,160,2013-09-28 03:35:00
10:55 PM,78.8,64.4,61,29.78,10.0,South,23.0,28.8,N/A,,Scattered Clouds,170,2013-09-28 03:55:00
11:15 PM,77.0,64.4,65,29.76,10.0,SSE,26.5,33.4,N/A,,Partly Cloudy,160,2013-09-28 04:15:00
11:35 PM,78.8,64.4,61,29.75,10.0,South,31.1,-,N/A,,Mostly Cloudy,170,2013-09-28 04:35:00
11:55 PM,77.0,64.4,65,29.75,10.0,South,27.6,36.8,N/A,,Mostly Cloudy,170,2013-09-28 04:55:00